When you browse on this site, cookies collect data to enhance your experience and personalize the content and advertising you see.
Visit our Privacy Policy to learn more. By continuing to use the site, you agree to this use of cookies and data.
  • In Czech Republic
  • List of Countries
  • For 7 days
  • Water Temperature
  • Satellite Maps
  • Weather Map
  • Weather Widgets
  • user-avatar
    Login

    Hourly Weather Durres

    Today, 19 December, Wednesday

    Time Temperature Precipitation Wind Pressure Humidity
    00:00 +2°C° 0 mm 5 mps 765 mmHg 77%
    01:00 +1°C° 0 mm 5 mps 765 mmHg 78%
    02:00 +1°C° 0 mm 5 mps 765 mmHg 77%
    03:00 +1°C° 0 mm 5 mps 765 mmHg 77%
    04:00 +1°C° 0 mm 5 mps 766 mmHg 77%
    05:00 +1°C° 0 mm 5 mps 766 mmHg 76%
    06:00 +1°C° 0 mm 5 mps 766 mmHg 76%
    07:00 0°C° 0 mm 4 mps 767 mmHg 75%
    08:00 +3°C° 0 mm 4 mps 767 mmHg 73%
    09:00 +5°C° 0 mm 4 mps 767 mmHg 71%
    10:00 +6°C° 0 mm 4 mps 767 mmHg 69%
    11:00 +7°C° 0 mm 4 mps 767 mmHg 68%
    12:00 +9°C° 0 mm 3 mps 767 mmHg 66%
    13:00 +10°C° 0 mm 3 mps 767 mmHg 65%
    14:00 +9°C° 0 mm 3 mps 767 mmHg 68%
    15:00 +8°C° 0 mm 3 mps 767 mmHg 71%
    16:00 +8°C° 0 mm 2 mps 767 mmHg 74%
    17:00 +7°C° 0 mm 2 mps 767 mmHg 75%
    18:00 +6°C° 0 mm 2 mps 767 mmHg 76%
    19:00 +5°C° 0 mm 2 mps 767 mmHg 77%
    20:00 +5°C° 0 mm 2 mps 767 mmHg 76%
    21:00 +5°C° 0 mm 2 mps 767 mmHg 75%
    22:00 +5°C° 0 mm 2 mps 768 mmHg 74%
    23:00 +5°C° 0 mm 2 mps 768 mmHg 73%

    Tomorrow, 20 December, Thursday

    Time Temperature Precipitation Wind Pressure Humidity
    00:00 +5°C° 0 mm 2 mps 768 mmHg 72%
    01:00 +4°C° 0 mm 3 mps 768 mmHg 71%
    02:00 +4°C° 0 mm 3 mps 767 mmHg 71%
    03:00 +4°C° 0 mm 3 mps 767 mmHg 70%
    04:00 +4°C° 0 mm 3 mps 767 mmHg 70%
    05:00 +4°C° 0 mm 4 mps 767 mmHg 69%
    06:00 +4°C° 0 mm 4 mps 767 mmHg 68%
    07:00 +4°C° 0 mm 4 mps 768 mmHg 67%
    08:00 +6°C° 0 mm 4 mps 768 mmHg 65%
    09:00 +7°C° 0 mm 5 mps 768 mmHg 63%
    10:00 +9°C° 0 mm 5 mps 768 mmHg 61%
    11:00 +10°C° 0 mm 5 mps 768 mmHg 60%
    12:00 +12°C° 0 mm 5 mps 767 mmHg 59%
    13:00 +12°C° 0 mm 5 mps 767 mmHg 59%
    14:00 +10°C° 0 mm 5 mps 767 mmHg 62%
    15:00 +9°C° 0 mm 5 mps 767 mmHg 66%
    16:00 +8°C° 0 mm 5 mps 767 mmHg 70%
    17:00 +8°C° 0.1 mm 6 mps 767 mmHg 70%
    18:00 +7°C° 0.1 mm 6 mps 767 mmHg 69%
    19:00 +7°C° 0.1 mm 6 mps 768 mmHg 69%
    20:00 +7°C° 0.1 mm 6 mps 768 mmHg 69%
    21:00 +7°C° 0.1 mm 6 mps 768 mmHg 70%
    22:00 +7°C° 0.1 mm 6 mps 768 mmHg 70%
    23:00 +7°C° 0.2 mm 6 mps 768 mmHg 71%

    Day after tomorrow, 21 December, Friday

    Time Temperature Precipitation Wind Pressure Humidity
    00:00 +7°C° 0.2 mm 5 mps 768 mmHg 72%
    01:00 +7°C° 0.2 mm 5 mps 768 mmHg 72%
    02:00 +7°C° 0.2 mm 5 mps 768 mmHg 73%
    03:00 +8°C° 0.2 mm 4 mps 768 mmHg 74%
    04:00 +8°C° 0.2 mm 4 mps 768 mmHg 75%
    05:00 +8°C° 0.2 mm 4 mps 768 mmHg 76%
    06:00 +9°C° 0.2 mm 3 mps 768 mmHg 78%
    07:00 +9°C° 0.2 mm 3 mps 768 mmHg 80%
    08:00 +10°C° 0.1 mm 3 mps 768 mmHg 79%
    09:00 +11°C° 0.1 mm 3 mps 769 mmHg 79%
    10:00 +11°C° 0.1 mm 3 mps 769 mmHg 79%
    11:00 +13°C° 0.1 mm 2 mps 769 mmHg 78%
    12:00 +13°C° 0.1 mm 2 mps 768 mmHg 78%
    13:00 +13°C° 0.1 mm 2 mps 768 mmHg 77%
    14:00 +13°C° 0 mm 2 mps 768 mmHg 80%
    15:00 +12°C° 0 mm 2 mps 768 mmHg 82%
    16:00 +12°C° 0 mm 2 mps 768 mmHg 84%
    17:00 +12°C° 0 mm 2 mps 769 mmHg 86%
    18:00 +10°C° 0 mm 2 mps 769 mmHg 87%
    19:00 +10°C° 0 mm 2 mps 769 mmHg 89%
    20:00 +9°C° 0 mm 2 mps 769 mmHg 89%
    21:00 +9°C° 0 mm 2 mps 769 mmHg 89%
    22:00 +9°C° 0 mm 2 mps 769 mmHg 90%
    23:00 +9°C° 0 mm 2 mps 769 mmHg 90%

    22 December, Saturday

    Time Temperature Precipitation Wind Pressure Humidity
    00:00 +9°C° 0 mm 2 mps 769 mmHg 89%
    01:00 +9°C° 0 mm 2 mps 769 mmHg 89%
    02:00 +9°C° 0 mm 2 mps 769 mmHg 90%
    03:00 +8°C° 0 mm 2 mps 768 mmHg 90%
    04:00 +8°C° 0 mm 2 mps 768 mmHg 90%
    05:00 +9°C° 0 mm 2 mps 768 mmHg 90%
    06:00 +9°C° 0 mm 2 mps 768 mmHg 90%
    07:00 +9°C° 0 mm 2 mps 768 mmHg 90%
    08:00 +10°C° 0 mm 2 mps 768 mmHg 87%
    09:00 +11°C° 0 mm 3 mps 768 mmHg 83%
    10:00 +12°C° 0 mm 3 mps 768 mmHg 80%
    11:00 +12°C° 0 mm 3 mps 768 mmHg 77%
    12:00 +13°C° 0 mm 3 mps 767 mmHg 74%
    13:00 +13°C° 0 mm 3 mps 767 mmHg 71%
    14:00 +14°C° 0 mm 2 mps 767 mmHg 75%
    15:00 +13°C° 0 mm 2 mps 767 mmHg 79%
    16:00 +12°C° 0 mm 2 mps 767 mmHg 83%
    17:00 +12°C° 0 mm 2 mps 767 mmHg 84%
    18:00 +11°C° 0 mm 1 mps 767 mmHg 86%
    19:00 +11°C° 0 mm 1 mps 767 mmHg 87%
    20:00 +11°C° 0 mm 1 mps 767 mmHg 87%
    21:00 +10°C° 0 mm 1 mps 767 mmHg 87%
    22:00 +9°C° 0 mm 2 mps 767 mmHg 86%
    23:00 +9°C° 0 mm 2 mps 767 mmHg 86%

    23 December, Sunday

    Time Temperature Precipitation Wind Pressure Humidity
    00:00 +9°C° 0 mm 2 mps 767 mmHg 86%
    01:00 +9°C° 0 mm 2 mps 767 mmHg 86%
    02:00 +8°C° 0 mm 2 mps 767 mmHg 85%
    03:00 +8°C° 0 mm 2 mps 767 mmHg 85%
    04:00 +8°C° 0 mm 2 mps 766 mmHg 84%
    05:00 +8°C° 0 mm 2 mps 766 mmHg 84%
    06:00 +8°C° 0 mm 2 mps 767 mmHg 83%
    07:00 +8°C° 0 mm 2 mps 767 mmHg 83%
    08:00 +10°C° 0 mm 2 mps 767 mmHg 78%
    09:00 +12°C° 0 mm 2 mps 767 mmHg 74%
    10:00 +14°C° 0 mm 2 mps 767 mmHg 70%
    11:00 +15°C° 0 mm 2 mps 766 mmHg 69%
    12:00 +15°C° 0 mm 2 mps 766 mmHg 68%
    13:00 +16°C° 0 mm 2 mps 765 mmHg 67%
    14:00 +15°C° 0 mm 1 mps 765 mmHg 71%
    15:00 +14°C° 0 mm 1 mps 765 mmHg 76%
    16:00 +13°C° 0 mm 1 mps 765 mmHg 81%
    17:00 +12°C° 0 mm 1 mps 765 mmHg 83%
    18:00 +12°C° 0 mm 1 mps 765 mmHg 84%
    19:00 +10°C° 0 mm 2 mps 766 mmHg 86%
    20:00 +10°C° 0 mm 2 mps 766 mmHg 86%
    21:00 +10°C° 0 mm 2 mps 766 mmHg 85%
    22:00 +10°C° 0 mm 2 mps 766 mmHg 85%
    23:00 +9°C° 0 mm 2 mps 765 mmHg 85%

    24 December, Monday

    Time Temperature Precipitation Wind Pressure Humidity
    00:00 +9°C° 0 mm 2 mps 765 mmHg 85%
    01:00 +9°C° 0 mm 2 mps 765 mmHg 85%
    02:00 +9°C° 0 mm 2 mps 765 mmHg 84%
    03:00 +9°C° 0 mm 2 mps 765 mmHg 84%
    04:00 +9°C° 0 mm 2 mps 764 mmHg 84%
    05:00 +9°C° 0 mm 2 mps 764 mmHg 84%
    06:00 +9°C° 0 mm 2 mps 764 mmHg 84%
    07:00 +9°C° 0 mm 2 mps 764 mmHg 84%
    08:00 +10°C° 0 mm 2 mps 764 mmHg 80%
    09:00 +12°C° 0 mm 2 mps 764 mmHg 76%
    10:00 +13°C° 0 mm 3 mps 764 mmHg 72%
    11:00 +13°C° 0.1 mm 3 mps 763 mmHg 73%
    12:00 +13°C° 0.1 mm 3 mps 763 mmHg 75%
    13:00 +13°C° 0.1 mm 3 mps 763 mmHg 76%
    14:00 +12°C° 0.7 mm 4 mps 763 mmHg 78%
    15:00 +10°C° 0.7 mm 5 mps 763 mmHg 80%
    16:00 +10°C° 0.7 mm 6 mps 763 mmHg 82%
    17:00 +9°C° 0.5 mm 7 mps 763 mmHg 81%
    18:00 +9°C° 0.5 mm 7 mps 764 mmHg 79%
    19:00 +9°C° 0.5 mm 8 mps 764 mmHg 78%
    20:00 +8°C° 0 mm 7 mps 765 mmHg 77%
    21:00 +6°C° 0 mm 7 mps 765 mmHg 76%
    22:00 +5°C° 0 mm 6 mps 766 mmHg 76%
    23:00 +4°C° 0 mm 7 mps 766 mmHg 76%
    Show more